Location: Haulchin
(50.3172°N, 3.4360°E)
Time: 15:06:47
(UTC+00:00)

Meteor 1-28 Rocket - Pass Details

Date: 23 May 2024
Orbit: 474 x 489 km, 97.5° (Epoch: 16 June)

Event Time Altitude Azimuth Distance (km) Brightness Sun altitude
Exits shadow 02:00:06 - 155° (SSE) 1,988 5.9 -12.9°
Reaches altitude 10° 02:00:53 10° 154° (SSE) 1,658 5.5 -12.8°
Maximum altitude 02:04:24 62° 73° (ENE) 546 3.5 -12.5°
Drops below altitude 10° 02:07:56 10° 353° (N) 1,664 6.5 -12.2°
Sets 02:10:00 0° 350° (N) 2,545 7.5 -12.0°
